Home   Weather   Fauske   Past weeks

Flag for Norway Past Weather in Fauske, Norway — Yesterday and Last 2 Weeks

Now
61 °F

Clear.


Feels Like: 61 °F
Forecast: 46 / 57 °F
Wind: 22 mph from East

Location: Bodo Vi

Current Time: Sep 26, 2016 at 5:45:43 AM

Latest Report: Sep 26, 2016 at 4:50 AM


Visibility: 10 mi

Pressure: 29.89 "Hg

Humidity: 63%

Dew Point: 48 °F

Location of FauskeLocation

Past Weather in Fauske — Graph

°F

Fauske Temperature Yesterday

Maximum temperature yesterday: 61 °F (at 9:50 PM)
Minimum temperature yesterday: 50 °F (at 6:20 AM)
Average temperature yesterday: 54 °F

High & Low Weather Summary for the Past Weeks

 TemperatureHumidityPressure
High63 °F (Sep 13, 4:50 PM)100% (Sep 11, 6:20 AM)30.24 "Hg (Sep 11, 6:20 AM)
Low43 °F (Sep 15, 10:50 PM)55% (Sep 13, 2:50 PM)29.39 "Hg (Sep 11, 2:20 PM)
Average55 °F82%30.04 "Hg
* Reported Sep 11 4:50 AM — Sep 26 4:50 AM, Fauske, Weather by CustomWeather, © 2016

Note: Actual official high and low records may vary slightly from our data, if they occured in-between our weather recording intervals... More about our weather records

Advertising

Fauske Weather History for the Previous 24 Hours

Scroll right to see more
 ConditionsComfort  
Time TempWeatherWind HumidityBarometerVisibility
4:50 AM
Mon, Sep 26
61 °FClear.22 mph63%29.89 "Hg10 mi
3:50 AM59 °FClear.23 mph68%29.89 "Hg10 mi
2:50 AM59 °FClear.17 mph68%29.92 "Hg10 mi
1:50 AM59 °FClear.17 mph72%29.92 "Hg10 mi
12:50 AM61 °FClear.20 mph68%29.92 "Hg10 mi
11:50 PM
Sun, Sep 25
61 °FClear.17 mph68%29.92 "Hg10 mi
11:20 PM61 °FPassing clouds.16 mph68%29.92 "HgN/A
10:50 PM61 °FPassing clouds.18 mph68%29.92 "HgN/A
10:20 PM61 °FPassing clouds.16 mph68%29.92 "HgN/A
9:50 PM61 °FPassing clouds.15 mph72%29.92 "HgN/A
8:50 PM59 °FPassing clouds.17 mph77%29.92 "HgN/A
8:20 PM57 °FPartly cloudy.16 mph82%29.92 "HgN/A
7:50 PM57 °FPartly cloudy.16 mph82%29.92 "HgN/A
7:20 PM55 °FPartly cloudy.18 mph88%29.92 "HgN/A
6:50 PM55 °FLight rain. Partly cloudy.16 mph88%29.92 "HgN/A
6:20 PM55 °FPartly sunny.16 mph88%29.92 "HgN/A
5:50 PM55 °FPartly sunny.16 mph94%29.92 "HgN/A
5:20 PM55 °FPartly sunny.18 mph94%29.89 "HgN/A
4:50 PM55 °FPartly sunny.18 mph94%29.89 "HgN/A
4:20 PM54 °FPartly sunny.16 mph100%29.89 "HgN/A
3:50 PM54 °FLight rain. Partly sunny.20 mph100%29.89 "HgN/A
3:20 PM54 °FLight rain. Partly sunny.20 mph100%29.86 "HgN/A
2:50 PM54 °FLight rain. Partly sunny.15 mph100%29.89 "HgN/A
2:20 PM52 °FRain. Partly sunny.17 mph100%29.89 "HgN/A
1:50 PM52 °FLight rain. Partly sunny.18 mph100%29.86 "HgN/A
1:20 PM52 °FRain. Partly sunny.16 mph100%29.86 "Hg5 mi
12:50 PM52 °FRain. Partly sunny.18 mph100%29.86 "HgN/A
12:20 PM52 °FRain. Partly sunny.17 mph100%29.83 "HgN/A
11:50 AM52 °FRain. Partly sunny.17 mph100%29.83 "Hg4 mi
11:20 AM52 °FRain. Partly sunny.20 mph94%29.83 "HgN/A
10:50 AM50 °FDrizzle. Partly sunny.21 mph100%29.83 "Hg3 mi
10:20 AM50 °FRain. Partly sunny.17 mph100%29.83 "Hg5 mi
9:50 AM50 °FLight rain. Partly sunny.18 mph100%29.80 "HgN/A
9:20 AM50 °FLight rain. Partly sunny.18 mph94%29.80 "HgN/A
8:50 AM50 °FDrizzle. Partly sunny.18 mph94%29.80 "HgN/A
8:20 AM50 °FDrizzle. Partly sunny.21 mph94%29.80 "HgN/A
7:50 AM50 °FDrizzle. Partly sunny.20 mph94%29.80 "HgN/A
7:20 AM50 °FDrizzle. Partly sunny.18 mph88%29.80 "HgN/A
6:50 AM50 °FPassing clouds.17 mph88%29.80 "HgN/A
6:20 AM50 °FPassing clouds.16 mph88%29.80 "HgN/A
5:50 AM52 °FPassing clouds.15 mph77%29.80 "HgN/A
5:20 AM52 °FLight rain. Passing clouds.14 mph77%29.80 "HgN/A
Weather by CustomWeather, © 2016

See weather overviewHow to use our weather pages